Find Kuiper-00151

NORAD ID: 65771 Int'l Des: 2025-217 Owner: KUIP Country: US Constellation: amazon-leo operational
LEOCIRCULAR

当前视图

正在加载3D地球...

About Kuiper-00151

Kuiper-00151 (NORAD 65771) is a amazon-leo constellation satellite launched Sep 25, 2025 by KUIP of US. It operates in LEO, CIRCULAR orbit with a mass of 490.00 kg.

即将过境

Passes for default location (London). Set your location on the main map for personalized predictions.

高度历史

Loading altitude history...

两行轨道根数

1 65771U 25217K 26236.66371673 .00003035 00000-0 42683-3 0 9998
2 65771 51.9022 20.3388 0000504 102.7464 257.3555 14.79941488 49756
Epoch: Aug 24, 2026 • Age: 22 hours

当前状态

高度 647.0 km
远地点 / 近地点 N/A
速度 7.53 km/s
星下点 -49.99°S, 119.92°E
发射日期 Sep 25, 2025
运行时间 0.9 years
类型 internet

技术详情

分类 Payload
质量 490.00 kg
干质量 490.00 kg
总质量 490.00 kg
长度 1.80 m
直径 0.70 m
跨度 5.00 m
形状 Box + 2 pan
制造商 KUIP
平台类型 Kuiper
阶段状态 In Orbit
所有者/国家 KUIP/US

Most Searched